Location: Pinhey's Point
(45.4411°N, 75.9539°W)
Time: 16:29:44
(UTC-04:00)

Iridium 65 - Visible Passes

Search period start: 28 September 2016 00:00
Search period end: 08 October 2016 00:00
Orbit: 776 x 779 km, 86.4° (Epoch: 28 September)

Date Brightness Start Highest point End Pass type
(mag) Time Alt. Az. Time Alt. Az. Time Alt. Az.
28 Sep 8.2 22:25:55 10° NNE 22:25:55 10° NNE 22:25:58 10° NNE visible
29 Sep 8.4 23:32:56 11° N 23:32:56 11° N 23:33:10 10° N visible
30 Sep 8.3 22:59:28 12° N 22:59:28 12° N 22:59:48 10° N visible
01 Oct 8.2 22:26:01 11° N 22:26:01 11° N 22:26:12 10° N visible
03 Oct 8.4 22:59:32 11° N 22:59:32 11° N 22:59:48 10° N visible
04 Oct 8.2 22:26:04 11° N 22:26:04 11° N 22:26:21 10° N visible
05 Oct 8.1 21:52:35 10° NNE 21:52:35 10° NNE 21:52:39 10° NNE visible
06 Oct 8.4 22:59:34 11° NNW 22:59:34 11° NNW 22:59:42 10° NNW visible
07 Oct 8.2 22:26:04 12° N 22:26:04 12° N 22:26:24 10° N visible
